Location: ????? ????
(37.9717°N, 23.4051°E)
Time: 14:19:03
(UTC+00:00)

Cosmos 2227 Rocket - Pass Details

Date: 18 April 2024
Orbit: 837 x 846 km, 71.0° (Epoch: 17 May)

Event Time Altitude Azimuth Distance (km) Brightness Sun altitude
Rises 18:22:13 0° 356° (N) 3,413 5.8 -14.9°
Reaches altitude 10° 18:26:51 10° 31° (NNE) 2,473 4.6 -15.7°
Maximum altitude 18:28:30 11° 48° (NE) 2,386 4.4 -16.0°
Drops below altitude 10° 18:30:08 10° 65° (ENE) 2,469 4.3 -16.3°
Enters shadow 18:30:23 10° 67° (ENE) 2,496 4.3 -16.3°
